This is the latest recevied weather packets stored in our database for station/object SP3OTE-2. If no packets are shown the sender has not sent any weather packets the latest 10 day(s).
| Time | Temp. | Humidity | Pressure | Rain* | Wind** | Luminosity | Snow |
|---|---|---|---|---|---|---|---|
| 1777869964 | 14.44° C | 48% | 1014.2 hPa | - | - | - | - |
| 1777869364 | 13.89° C | 49% | 1014.1 hPa | - | - | - | - |
| 1777868763 | 13.89° C | 49% | 1013.9 hPa | - | - | - | - |
| 1777868163 | 13.33° C | 49% | 1013.9 hPa | - | - | - | - |
| 1777867563 | 13.33° C | 49% | 1013.9 hPa | - | - | - | - |
| 1777866962 | 12.78° C | 50% | 1013.8 hPa | - | - | - | - |
| 1777866362 | 12.22° C | 50% | 1013.7 hPa | - | - | - | - |
| 1777865762 | 12.22° C | 50% | 1013.7 hPa | - | - | - | - |
| 1777865162 | 12.22° C | 50% | 1013.7 hPa | - | - | - | - |
| 1777864562 | 12.22° C | 50% | 1013.7 hPa | - | - | - | - |
| 1777863961 | 12.22° C | 50% | 1013.6 hPa | - | - | - | - |
| 1777863361 | 12.22° C | 50% | 1013.7 hPa | - | - | - | - |
| 1777862761 | 12.22° C | 50% | 1013.7 hPa | - | - | - | - |
| 1777862161 | 12.22° C | 49% | 1013.5 hPa | - | - | - | - |
| 1777861560 | 12.78° C | 49% | 1013.5 hPa | - | - | - | - |
| 1777860960 | 12.78° C | 49% | 1013.5 hPa | - | - | - | - |
| 1777860360 | 12.78° C | 48% | 1013.6 hPa | - | - | - | - |
| 1777859759 | 12.78° C | 48% | 1013.6 hPa | - | - | - | - |
| 1777859159 | 12.78° C | 48% | 1013.7 hPa | - | - | - | - |
| 1777858559 | 13.33° C | 47% | 1013.8 hPa | - | - | - | - |
| 1777857958 | 13.33° C | 47% | 1013.7 hPa | - | - | - | - |
| 1777857358 | 13.33° C | 47% | 1013.8 hPa | - | - | - | - |
| 1777856758 | 13.33° C | 47% | 1013.8 hPa | - | - | - | - |
| 1777856158 | 13.89° C | 47% | 1013.8 hPa | - | - | - | - |
| 1777855558 | 13.89° C | 46% | 1013.8 hPa | - | - | - | - |
* Rain since midnight (hover to see other rain measurements)
** Current wind speed in m/s (hover to see current wind gust speed)